"Pseudo-MPEC" for P10OMdH

Created 2019 Jun 14 14:08:29 UT using Find_Orb

Click here for an explanation of pseudo-MPECs

 
 Astrometry: 
     P10OMdH  C2019 06 07u5YopIsZ:;E$w(NSD?khkZ\NAstrometryxxbk(oT$*3MU6F5*Z.F51
     P10OMdH  C2019 06 07m\G:Ul]GL?OJqkpyaJWE7*M+5WGJe:f;[W-Xredacted;Y7clickF51
     P10OMdH  C2019 06 07a^.STanX?9oI:herevT)for-USrJtNeU`MMr,ZexplanationD3RF51

Station data:
(F51) Pan-STARRS 1, Haleakala  (N20.707235 W156.255910)  US/Hawaii.
   Observers N. Primak, A. Schultz, S. Watters, J. Thiel, T. Goggia. Measurer
   PS1 Science Consortium. 1.8-m Ritchey-Chrétien + CCD.

Orbital elements:  P10OMdH
   Perihelion 2018 Apr 30.953080 +/- 157 TT = 22:52:26 (JD 2458239.453080)
Epoch 2019 Jun  8.0 TT = JDT 2458642.5                        AutoNEOCP
M  95.04073330 +/- 110              (J2000 ecliptic)
n   0.23580563 +/- 0.457            Peri.  311.18427 +/- 60
a   2.59477637 +/- 3.35             Node   266.33739 +/- 90
e   0.0762323 +/- 0.228             Incl.   33.49488 +/- 36
P   4.18                   H 16.7   G  0.15   U 12.2  SR
q 2.39697044 +/- 0.825    Q 2.79258230 +/- 24.7
From 3 observations 2019 June 7 (38.0 min); mean residual 0".05
Residuals in arcseconds: 
190607 F51  .03-  .04+    190607 F51  .06+  .08-    190607 F51  .03-  .04+    

Ephemerides (geocentric):
Date (UTC) HH   RA              Dec         delta   r     elong  mag " sig PA
---- -- -- --  -------------   -----------  ------ ------ -----  --- ---- ---
2019 06 14 14  22 06 41.845   +22 46 36.19  2.2841 2.6321  98.4 21.6  39d   7
2019 06 14 15  22 06 42.319   +22 47 20.86  2.2837 2.6321  98.4 21.6  39d   7
2019 06 14 16  22 06 42.791   +22 48 05.52  2.2833 2.6322  98.5 21.6  39d   7
2019 06 14 17  22 06 43.261   +22 48 50.18  2.2830 2.6322  98.5 21.6  39d   7
2019 06 14 18  22 06 43.728   +22 49 34.83  2.2826 2.6322  98.5 21.6  40d   7
2019 06 14 19  22 06 44.193   +22 50 19.48  2.2822 2.6323  98.5 21.6  40d   7
2019 06 14 20  22 06 44.655   +22 51 04.12  2.2818 2.6323  98.6 21.6  40d   6
2019 06 14 21  22 06 45.115   +22 51 48.76  2.2814 2.6323  98.6 21.6  41d   6
2019 06 14 22  22 06 45.573   +22 52 33.39  2.2810 2.6324  98.6 21.6  41d   6
2019 06 14 23  22 06 46.029   +22 53 18.02  2.2806 2.6324  98.7 21.6  41d   6
2019 06 15 00  22 06 46.481   +22 54 02.64  2.2802 2.6324  98.7 21.6  42d   7
2019 06 15 01  22 06 46.932   +22 54 47.25  2.2798 2.6325  98.7 21.6  42d   7
2019 06 15 02  22 06 47.380   +22 55 31.86  2.2794 2.6325  98.7 21.6  42d   7
2019 06 15 03  22 06 47.826   +22 56 16.46  2.2790 2.6325  98.8 21.6  42d   7
2019 06 15 04  22 06 48.270   +22 57 01.06  2.2786 2.6326  98.8 21.6  42d   8
2019 06 15 05  22 06 48.711   +22 57 45.65  2.2782 2.6326  98.8 21.6  42d   8
2019 06 15 06  22 06 49.149   +22 58 30.24  2.2779 2.6326  98.8 21.6  42d   8
2019 06 15 07  22 06 49.586   +22 59 14.82  2.2775 2.6327  98.9 21.6  42d   8
2019 06 15 08  22 06 50.019   +22 59 59.39  2.2771 2.6327  98.9 21.6  42d   8
2019 06 15 09  22 06 50.451   +23 00 43.96  2.2767 2.6327  98.9 21.6  42d   8
2019 06 15 10  22 06 50.880   +23 01 28.52  2.2763 2.6328  98.9 21.6  43d   8
2019 06 15 11  22 06 51.307   +23 02 13.08  2.2759 2.6328  99.0 21.6  43d   9
2019 06 15 12  22 06 51.731   +23 02 57.63  2.2755 2.6328  99.0 21.6  43d   9
2019 06 15 13  22 06 52.153   +23 03 42.17  2.2751 2.6329  99.0 21.6  43d   9
2019 06 15 14  22 06 52.573   +23 04 26.71  2.2747 2.6329  99.0 21.6  43d   9
2019 06 15 15  22 06 52.990   +23 05 11.25  2.2743 2.6329  99.1 21.6  43d   9
2019 06 15 16  22 06 53.405   +23 05 55.78  2.2740 2.6330  99.1 21.6  43d   9
2019 06 15 17  22 06 53.817   +23 06 40.30  2.2736 2.6330  99.1 21.6  43d   9
2019 06 15 18  22 06 54.227   +23 07 24.81  2.2732 2.6330  99.1 21.6  43d   9
2019 06 15 19  22 06 54.635   +23 08 09.32  2.2728 2.6331  99.2 21.6  43d   9
2019 06 15 20  22 06 55.040   +23 08 53.83  2.2724 2.6331  99.2 21.6  43d   9
2019 06 15 21  22 06 55.443   +23 09 38.32  2.2720 2.6331  99.2 21.6  43d   9
2019 06 15 22  22 06 55.843   +23 10 22.82  2.2716 2.6332  99.2 21.6  43d   9
2019 06 15 23  22 06 56.241   +23 11 07.30  2.2712 2.6332  99.3 21.6  43d   9
2019 06 16 00  22 06 56.637   +23 11 51.78  2.2708 2.6332  99.3 21.6  43d   9
2019 06 16 01  22 06 57.030   +23 12 36.26  2.2704 2.6333  99.3 21.6  43d   9
2019 06 16 02  22 06 57.421   +23 13 20.72  2.2701 2.6333  99.3 21.6  43d   9
2019 06 16 03  22 06 57.809   +23 14 05.19  2.2697 2.6333  99.4 21.6  43d   9
2019 06 16 04  22 06 58.195   +23 14 49.64  2.2693 2.6334  99.4 21.6  43d   9
2019 06 16 05  22 06 58.578   +23 15 34.09  2.2689 2.6334  99.4 21.6  43d   9
2019 06 16 06  22 06 58.960   +23 16 18.54  2.2685 2.6334  99.5 21.6  43d   9
2019 06 16 07  22 06 59.338   +23 17 02.97  2.2681 2.6335  99.5 21.6  43d   9
2019 06 16 08  22 06 59.715   +23 17 47.40  2.2677 2.6335  99.5 21.6  43d   9
2019 06 16 09  22 07 00.088   +23 18 31.83  2.2673 2.6335  99.5 21.6  43d   9
2019 06 16 10  22 07 00.460   +23 19 16.25  2.2670 2.6336  99.6 21.6  43d   8
2019 06 16 11  22 07 00.829   +23 20 00.66  2.2666 2.6336  99.6 21.6  44d   8
2019 06 16 12  22 07 01.196   +23 20 45.07  2.2662 2.6336  99.6 21.6  44d   8
2019 06 16 13  22 07 01.560   +23 21 29.47  2.2658 2.6337  99.6 21.6  44d   8